This is the latest recevied weather packets stored in our database for station/object NO9B. If no packets are shown the sender has not sent any weather packets the latest 10 day(s).
| Time | Temp. | Humidity | Pressure | Rain* | Wind** | Luminosity | Snow |
|---|---|---|---|---|---|---|---|
| 1788397497 | 27.78° C | 86% | 1013.5 hPa | 0 mm | - | 0 W/m² | - |
| 1788397195 | 27.78° C | 86% | 1013.6 hPa | 0 mm | - | 0 W/m² | - |
| 1788396891 | 28.33° C | 86% | 1013.5 hPa | 0 mm | - | 0 W/m² | - |
| 1788396587 | 28.33° C | 84% | 1013.5 hPa | 0 mm | - | 0 W/m² | - |
| 1788396287 | 28.33° C | 84% | 1013.2 hPa | 0 mm | - | 0 W/m² | - |
| 1788395983 | 28.33° C | 84% | 1013.4 hPa | 0 mm | - | 0 W/m² | - |
| 1788395682 | 28.89° C | 82% | 1013.3 hPa | 0 mm | - | 0 W/m² | - |
| 1788395378 | 28.89° C | 82% | 1013.3 hPa | 0 mm | - | 1 W/m² | - |
| 1788395073 | 29.44° C | 82% | 1013.5 hPa | 0 mm | - | 1 W/m² | - |
| 1788394772 | 29.44° C | 81% | 1013.5 hPa | 0 mm | - | 2 W/m² | - |
| 1788394472 | 29.44° C | 81% | 1013.6 hPa | 0 mm | - | 3 W/m² | - |
| 1788394172 | 30° C | 81% | 1013.4 hPa | 0 mm | - | 5 W/m² | - |
| 1788393867 | 30° C | 80% | 1013.6 hPa | 0 mm | - | 6 W/m² | - |
| 1788393565 | 30° C | 79% | 1013.5 hPa | 0 mm | - | 7 W/m² | - |
| 1788393261 | 30.56° C | 76% | 1013.6 hPa | 0 mm | - | 8 W/m² | - |
| 1788392960 | 30.56° C | 77% | 1013.5 hPa | 0 mm | - | 10 W/m² | - |
| 1788392656 | 30.56° C | 74% | 1013.6 hPa | 0 mm | - | 13 W/m² | - |
| 1788392355 | 30.56° C | 75% | 1013.5 hPa | 0 mm | - | 21 W/m² | - |
| 1788392055 | 30.56° C | 77% | 1013.6 hPa | 0 mm | - | 34 W/m² | - |
| 1788391754 | 30.56° C | 76% | 1013.5 hPa | 0 mm | - | 34 W/m² | - |
| 1788391449 | 30.56° C | 78% | 1013.4 hPa | 0 mm | - | 33 W/m² | - |
| 1788391148 | 30.56° C | 78% | 1013.8 hPa | 0 mm | - | 31 W/m² | - |
| 1788390843 | 30.56° C | 79% | 1013.7 hPa | 0 mm | - | 40 W/m² | - |
| 1788390538 | 30.56° C | 79% | 1013.4 hPa | 0 mm | - | 32 W/m² | - |
| 1788390238 | 30.56° C | 78% | 1013.9 hPa | 0 mm | - | 30 W/m² | - |
* Rain latest hour (hover to see other rain measurements)
** Current wind speed in m/s (hover to see current wind gust speed)